Hourly Weather Roundup
Issued by NWS

Home | Current Version | Previous Version | Text Only | Print | Product List | Glossary On
Versions: 1 2 3 4 5 6 7 8 9 10 11 12 13 14 15 16 17 18 19 20 21 22 23 24 25 26 27 28 29 30 31 32 33 34 35 36 37 38 39 40 41 42 43 44 45 46 47 48 49 50
000
NZUS43 KILX 310910
HWRCRS

CRS HOURLY WEATHER ROUNDUP
NATIONAL WEATHER SERVICE, LINCOLN IL
400 AM CDT MON AUG 31 2015


CITY           SKY/WX    TMP DP  RH WIND       PRES   REMARKS
CHAMPAIGN      PTCLDY    66  64  93 CALM      30.04S FOG
LAWRENCEVILLE  CLEAR     66  64  93 S5        30.05S FOG
PEORIA         CLEAR     68  65  90 NE6       30.02S
SPRINGFIELD    CLEAR     71  69  93 CALM      30.02R
$$


CITY           SKY/WX    TMP DP  RH WIND       PRES   REMARKS
BLOOMINGTON    CLEAR     68  68 100 S3        30.05S FOG
DECATUR        CLEAR     70  67  90 S3        30.03S
EFFINGHAM      MOCLDY    69  66  92 CALM      30.05F
FLORA          PTCLDY    67  66  97 CALM      30.05S
GALESBURG      CLEAR     66  65  96 E3        30.02F FOG
JACKSONVILLE   CLEAR     73  70  92 S5        30.01S
LACON          CLEAR     62  61  96 CALM      30.02S FOG
LINCOLN        CLEAR     67  65  94 CALM      30.02S FOG
LITCHFIELD     CLEAR     69  68  94 SE5       30.03S FOG

CITY           SKY/WX    TMP DP  RH WIND       PRES   REMARKS
MACOMB         FOG       62  62 100 NE3       30.03F VSB 3/4
MATTOON        PTCLDY    70  67  90 S7        30.03F FOG
MOLINE         CLEAR     62  59  90 E3        30.02S
OLNEY          PTCLDY    64  64 100 CALM      30.05S
PARIS          CLEAR     68  68  98 S5        30.06R
PONTIAC        FOG       62  62 100 CALM      30.04S VSB 3/4
QUINCY         CLEAR     70  68  93 SE5       30.00R FOG
RANTOUL        CLEAR     69  67  95 CALM      30.04S FOG
ROBINSON       PTCLDY    63  62  96 CALM      30.06S FOG
TAYLORVILLE    CLEAR     70  68  94 S6        30.02S FOG
TERRE HAUTE    FOG       65  64  97 CALM      30.05S VSB 1/2
$$


CITY           SKY/WX    TMP DP  RH WIND       PRES   REMARKS
BURLINGTON     CLEAR     68  67  96 SE5       30.00F
CHICAGO        PTCLDY    62  62 100 CALM      30.03S FOG
DES MOINES     CLEAR     69  65  86 SE6       29.98R
EVANSVILLE     CLEAR     68  66  93 CALM      30.06S FOG
INDIANAPOLIS   MOCLDY    69  66  90 SW3       30.05S
KANSAS CITY    PTCLDY    72  69  90 SE7       29.96S
MILWAUKEE      FOG       60  59  96 SW5       30.03S VSB 3/4
ST LOUIS       PTCLDY    76  70  82 S6        30.02R
$$




USA.gov is the U.S. government's official web portal to all federal, state and local government web resources and services.